Regional Weather Roundup
Issued by NWS Little Rock, AR

Home | Current Version | Previous Version | Text Only | Print | Product List | Glossary On
Versions: 1 2 3 4 5 6 7 8 9 10 11 12 13 14 15 16 17 18 19 20 21 22 23 24 25 26 27 28 29 30 31 32 33 34 35 36 37 38 39 40 41 42 43 44 45 46 47 48
000
ASUS44 KLZK 271305
RWRLZK

WEATHER ROUNDUP FOR ARKANSAS
NATIONAL WEATHER SERVICE LITTLE ROCK AR
700 AM CST SAT DEC 27 2014

NOTE: "FAIR" INDICATES FEW OR NO CLOUDS BELOW 12,000 FEET WITH NO
SIGNIFICANT WEATHER AND/OR OBSTRUCTIONS TO VISIBILITY.

ARZ001-003-010-029-271400-
NORTHWEST ARKANSAS

CITY           SKY/WX    TMP DP  RH WIND       PRES   REMARKS
FAYETTEVILLE   LGT RAIN  38  38 100 N7        30.16R
FORT SMITH     CLOUDY    44  41  89 NW9       30.17R
HARRISON       CLOUDY    44  43  96 NW13G21   30.13R FOG
BENTONVILLE    CLOUDY    37  34  87 NW10G16   30.18R
ROGERS         LGT RAIN  37  36  96 NW10      30.17R
SILOAM SPGS    CLOUDY    36  30  80 N15       30.20R
HIGHFILL       CLOUDY    37  32  82 NW12      30.18R
SPRINGDALE     LGT RAIN  39  37  93 NW12      30.18R FOG
$$

ARZ004-005-016-271400-
NORTH CENTRAL ARKANSAS

CITY           SKY/WX    TMP DP  RH WIND       PRES   REMARKS
BATESVILLE     CLOUDY    52  50  93 SE5       30.10R
FLIPPIN        MOCLDY    48  46  93 CALM      30.08R
MTN HOME       CLOUDY    50  49  96 CALM      30.07R FOG
$$

ARZ040-041-271400-
WEST CENTRAL ARKANSAS

CITY           SKY/WX    TMP DP  RH WIND       PRES   REMARKS
MENA           CLOUDY    50  48  93 W9        30.11R
MOUNT IDA      LGT RAIN  53  52  96 NW5       30.05R FOG
$$

ARZ009-017-025-026-028-271400-
NORTHEAST ARKANSAS

CITY           SKY/WX    TMP DP  RH WIND       PRES   REMARKS
CORNING        CLOUDY    48  48 100 SE6       30.13R FOG
JONESBORO      CLOUDY    50  49  96 S6        30.13R
NEWPORT        LGT RAIN  50  50 100 SE8       30.12S
WALNUT RIDGE   CLOUDY    50  46  87 S7        30.11R
BLYTHEVILLE    RAIN      49  49 100 SE6       30.14S FOG
$$

ARZ022-023-033-042-044-271400-
CENTRAL ARKANSAS

CITY           SKY/WX    TMP DP  RH WIND       PRES   REMARKS
LITTLE ROCK    CLOUDY    54  52  93 SE5       30.09R FOG
N LITTLE ROCK    N/A     54  54 100 S6        30.09R
JACKSONVILLE   CLOUDY    54  54  99 SE3       30.08R
SEARCY         CLOUDY    52  52 100 E3        30.12R FOG
HOT SPRINGS    CLOUDY    55  54  96 E5        30.07R
RUSSELLVILLE   CLOUDY    52  51  97 CALM      30.07R FOG
CLINTON        CLOUDY    50  50 100 CALM      30.11R FOG
$$

ARZ036-271400-
EAST ARKANSAS

CITY           SKY/WX    TMP DP  RH WIND       PRES   REMARKS
WEST MEMPHIS   CLOUDY    54  50  86 CALM      30.13R
$$

ARZ050-053-066-070-073-271400-
SOUTHWEST ARKANSAS

CITY           SKY/WX    TMP DP  RH WIND       PRES   REMARKS
ARKADELPHIA    LGT RAIN  56  56 100 CALM      30.08R FOG
CAMDEN         CLOUDY    55  54  94 MISG      30.07S FOG
TEXARKANA      CLOUDY    58  58 100 S6        30.05R FOG
EL DORADO      CLOUDY    58  57  97 SE7       30.06S
DE QUEEN       LGT RAIN  56  55  97 N8        30.05R FOG
$$

ARZ056-057-069-271400-
SOUTHEAST ARKANSAS

CITY           SKY/WX    TMP DP  RH WIND       PRES   REMARKS
PINE BLUFF     RAIN      53  51  93 E3        30.10R FOG
STUTTGART      CLOUDY    52  48  87 NE6       30.11R
MONTICELLO     TSTM      56  55  97 SW3       30.10R FOG

$$




USA.gov is the U.S. government's official web portal to all federal, state and local government web resources and services.